W5MAI Weather Reports


Display with metric or nautical units.
time (UTC)temp
F
wind
direction
speed
MPH
gust
MPH
rain 1hr
in
rain 24hr
in
rain mn
in
humidity
%
barometer
mb
20260901113345 72 163 0.0 0.0 0.00 0.00 0.00 91 1018.2
20260901112352 72 163 0.0 0.0 0.00 0.00 0.00 91 1018.2
20260901111412 73 163 0.0 0.0 0.00 0.00 0.00 91 1018.3
20260901110357 73 163 0.0 1.0 0.00 0.00 0.00 91 1018.2
20260901105345 73 163 0.0 0.0 0.00 0.00 0.00 90 1018.3
20260901104420 73 163 0.0 0.0 0.00 0.00 0.00 90 1018.3
20260901103355 73 163 0.0 0.0 0.00 0.00 0.00 90 1018.2
20260901030344 87 157 3.0 6.0 0.00 0.00 0.00 61 1016.7
20260901025411 87 159 2.0 5.0 0.00 0.00 0.00 60 1016.6
20260901024324 87 146 3.0 5.0 0.00 0.00 0.00 59 1016.4
20260901022354 88 176 4.0 8.0 0.00 0.00 0.00 58 1016.0
20260901021422 88 169 3.0 7.0 0.00 0.00 0.00 58 1015.9
20260901020340 88 147 3.0 7.0 0.00 0.00 0.00 57 1015.8
20260901015420 88 167 3.0 7.0 0.00 0.00 0.00 56 1015.6
20260901014339 88 152 3.0 5.0 0.00 0.00 0.00 54 1015.6
20260901013413 87 146 3.0 8.0 0.00 0.00 0.00 54 1015.6
20260901012343 87 103 0.0 0.0 0.00 0.00 0.00 56 1015.4
20260901011408 89 103 0.0 0.0 0.00 0.00 0.00 55 1015.2
20260901010334 91 103 0.0 0.0 0.00 0.00 0.00 52 1015.1
20260901005344 91 103 0.0 1.0 0.00 0.00 0.00 49 1015.2
20260901004358 92 96 0.0 1.0 0.00 0.00 0.00 49 1015.1
20260901003420 93 96 0.0 2.0 0.00 0.00 0.00 47 1015.1
20260901002340 93 139 0.0 3.0 0.00 0.00 0.00 45 1015.0
20260901001323 94 154 1.0 3.0 0.00 0.00 0.00 45 1015.0
20260901000336 93 119 1.0 6.0 0.00 0.00 0.00 45 1014.9
20260831235402 93 149 0.0 3.0 0.00 0.00 0.00 46 1014.9
20260831234327 93 134 1.0 7.0 0.00 0.00 0.00 45 1014.8
20260831233341 94 153 3.0 9.0 0.00 0.00 0.00 44 1014.9
20260831232404 94 139 4.0 7.0 0.00 0.00 0.00 43 1014.9
20260831231326 94 75 1.0 5.0 0.00 0.00 0.00 45 1014.9
20260831230346 93 86 1.0 6.0 0.00 0.00 0.00 46 1015.0
20260831225419 94 109 3.0 9.0 0.00 0.00 0.00 44 1015.1
20260831224331 95 136 3.0 11.0 0.00 0.00 0.00 44 1015.1
20260831223400 95 49 4.0 9.0 0.00 0.00 0.00 44 1015.1
20260831222422 96 178 5.0 9.0 0.00 0.00 0.00 43 1015.2
20260831221334 94 219 2.0 7.0 0.00 0.00 0.00 45 1015.2
20260831215345 95 174 2.0 6.0 0.00 0.00 0.00 44 1015.4
20260831214410 95 174 4.0 8.0 0.00 0.00 0.00 44 1015.5
20260831213326 94 169 3.0 6.0 0.00 0.00 0.00 46 1015.8
20260831211353 93 150 4.0 9.0 0.00 0.00 0.00 47 1015.9
20260831210418 93 151 0.0 8.0 0.00 0.00 0.00 48 1016.0
20260831205339 94 144 5.0 10.0 0.00 0.00 0.00 47 1016.2
20260831204400 93 61 4.0 8.0 0.00 0.00 0.00 48 1016.3
20260831203323 93 186 4.0 8.0 0.00 0.00 0.00 47 1016.7
20260831201348 95 198 3.0 9.0 0.00 0.00 0.00 46 1016.8
20260831200407 94 111 5.0 11.0 0.00 0.00 0.00 47 1017.1
20260831195330 94 144 1.0 11.0 0.00 0.00 0.00 48 1017.3
20260831194356 94 210 3.0 9.0 0.00 0.00 0.00 47 1017.4
20260831193324 93 184 4.0 10.0 0.00 0.00 0.00 48 1017.6
20260831191348 93 69 5.0 8.0 0.00 0.00 0.00 51 1018.0
20260831190350 93 146 4.0 9.0 0.00 0.00 0.00 51 1018.1
20260831185324 92 181 6.0 11.0 0.00 0.00 0.00 50 1018.1
20260831182335 92 90 4.0 12.0 0.00 0.00 0.00 54 1018.3
20260831181350 91 182 3.0 8.0 0.00 0.00 0.00 52 1018.5
20260831180405 92 136 4.0 10.0 0.00 0.00 0.00 53 1018.5
20260831175424 92 163 3.0 8.0 0.00 0.00 0.00 54 1018.6
20260831174340 90 119 5.0 9.0 0.00 0.00 0.00 56 1018.7
20260831173359 90 222 4.0 8.0 0.00 0.00 0.00 56 1018.7
20260831172414 90 117 4.0 8.0 0.00 0.00 0.00 58 1018.8
20260831171329 89 209 3.0 6.0 0.00 0.00 0.00 59 1018.8
20260831170342 90 160 6.0 9.0 0.00 0.00 0.00 57 1019.0
20260831165337 89 207 2.0 8.0 0.00 0.00 0.00 61 1019.1
20260831164407 89 175 3.0 9.0 0.00 0.00 0.00 62 1019.2
20260831163413 88 99 5.0 9.0 0.00 0.00 0.00 63 1019.2
20260831162324 88 148 4.0 8.0 0.00 0.00 0.00 65 1019.3
20260831161337 87 127 5.0 10.0 0.00 0.00 0.00 65 1019.4
20260831160336 87 111 4.0 11.0 0.00 0.00 0.00 68 1019.2
20260831155404 86 100 4.0 10.0 0.00 0.00 0.00 70 1019.2
20260831154410 86 212 4.0 8.0 0.00 0.00 0.00 72 1019.1
20260831153406 85 169 3.0 9.0 0.00 0.00 0.00 73 1018.9
20260831152421 85 165 5.0 8.0 0.00 0.00 0.00 74 1018.9
20260831150331 83 166 5.0 9.0 0.00 0.00 0.00 77 1018.8
20260831145359 82 252 3.0 7.0 0.00 0.00 0.00 82 1018.7
20260831144324 82 202 2.0 6.0 0.00 0.00 0.00 83 1018.9
20260831142352 80 190 3.0 9.0 0.00 0.00 0.00 85 1018.8
20260831141359 80 189 2.0 8.0 0.00 0.00 0.00 86 1018.9
20260831140329 80 253 4.0 5.0 0.00 0.00 0.00 88 1018.8
20260831135354 79 207 3.0 7.0 0.00 0.00 0.00 89 1018.6
20260831134323 78 169 3.0 5.0 0.00 0.00 0.00 91 1018.6
20260831133344 77 211 0.0 1.0 0.00 0.00 0.00 93 1018.6
20260831132413 77 211 0.0 1.0 0.00 0.00 0.00 93 1018.6
20260831131458 76 211 0.0 1.0 0.00 0.00 0.00 93 1018.5
20260831130331 75 211 0.0 0.0 0.00 0.00 0.00 94 1018.4
20260831125334 74 211 0.0 0.0 0.00 0.00 0.00 94 1018.5
20260831124408 74 211 0.0 0.0 0.00 0.00 0.00 93 1018.3
20260831123327 74 211 0.0 0.0 0.00 0.00 0.00 92 1018.2
20260831122356 74 211 0.0 0.0 0.00 0.00 0.00 92 1018.0
20260831121422 74 211 0.0 0.0 0.00 0.00 0.00 92 1017.7
20260831115350 74 211 0.0 0.0 0.00 0.00 0.00 91 1017.6
20260831114326 74 211 0.0 0.0 0.00 0.00 0.00 91 1017.6